Content
SEND FEEDBACK

Daily
Averages
Monthly
Summary
Germany

GUTERSLOH, GERMANY


Home > Europe > Germany
Elevation: 68 feet     Latitude: 51 56N     Longitude: 008 19E

WEATHER
 
SELECT A DAY
Number of Records: 110,922;   Date Range: 3/24/97 - 9/10/14
 
SHARE

PRINT THIS DATA

[ ← Previous Day ]
WEATHER ALMANAC - JANUARY 31, 2013
[ Next Day → ]
[ °C ]   °F
Weather ElementAverageHighLow
Temperature45.1 °F46.4 °F (1:50 am)42.8 °F (6:50 am)
Dewpoint36 °F39.2 °F (2:50 pm)33.8 °F (2:50 am)
Humidity70.9 %81 % (1:50 pm)62 % (2:50 am)
Barometer29.81 in29.92 in (4:50 am)29.68 in (4:50 pm)
Wind Speed21.3 mph26.5 mph (12:50 pm)
Wind Gust40.3 mph (12:50 pm)
Weather ElementAverage
Visibility6.1 mi
Wind DirectionWSW (239.1 °)

Weather ElementTotal
Precipitation---
Heating Degree Days20.4 (Base 65)
Averaged from 23 records on January 31, 2013
WEATHER CONDITIONS BREAKOUT
WIND DIRECTION BREAKOUT
WEATHER BY HOUR - JANUARY 31, 2013
[ °C ]   °F
Local TimeTemperatureDewpointHumidityBarometerVisibilityWind DirectionWind SpeedGust SpeedPrecipitationEventsConditions
1:50 AM46.4 °F35.6 °F66 %29.86 in6.2 miWSW (250°)24.2 mphMostly Cloudy
2:50 AM46.4 °F33.8 °F62 %29.89 in6.2 miWSW (250°)24.2 mphMostly Cloudy
3:50 AM44.6 °F35.6 °F71 %29.89 in6.2 miWSW (250°)25.3 mph39.1 mphMostly Cloudy
4:50 AM44.6 °F35.6 °F71 %29.92 in6.2 miWSW (250°)23.0 mph34.5 mphMostly Cloudy
5:50 AM44.6 °F35.6 °F71 %29.92 in6.2 miWSW (250°)21.9 mphMostly Cloudy
6:50 AM42.8 °F35.6 °F76 %29.92 in6.2 miWSW (240°)17.3 mphMostly Cloudy
7:50 AM44.6 °F35.6 °F71 %29.92 in6.2 miWSW (240°)16.1 mphMostly Cloudy
8:50 AM44.6 °F35.6 °F71 %29.89 inSW (230°)16.1 mphClear
9:50 AM44.6 °F37.4 °F76 %29.86 in6.2 miSW (230°)18.4 mphOvercast
10:50 AM46.4 °F35.6 °F66 %29.83 in6.2 miSW (220°)18.4 mphOvercast
11:50 AM46.4 °F33.8 °F62 %29.80 in6.2 miSW (220°)13.8 mphMostly Cloudy
12:50 PM44.6 °F35.6 °F71 %29.80 in4.3 miSW (230°)26.5 mph40.3 mphRainLight Rain
1:50 PM42.8 °F37.4 °F81 %29.74 in6.2 miSW (220°)23.0 mphRainLight Rain
2:50 PM44.6 °F39.2 °F81 %29.71 in6.2 miSW (220°)24.2 mph36.8 mphMostly Cloudy
3:50 PM46.4 °F37.4 °F71 %29.71 in6.2 miSW (230°)21.9 mph40.3 mphMostly Cloudy
4:50 PM46.4 °F39.2 °F76 %29.68 in6.2 miWSW (240°)20.7 mph34.5 mphMostly Cloudy
5:50 PM46.4 °F37.4 °F71 %29.71 in6.2 miWSW (250°)24.2 mphScattered Clouds
6:50 PM44.6 °F37.4 °F76 %29.74 in6.2 miWSW (250°)20.7 mphScattered Clouds
7:50 PM46.4 °F35.6 °F66 %29.77 in6.2 miWSW (250°)26.5 mphMostly Cloudy
8:50 PM44.6 °F35.6 °F71 %29.77 in6.2 miWSW (250°)20.7 mphMostly Cloudy
9:50 PM44.6 °F33.8 °F66 %29.77 inWSW (240°)20.7 mphClear
10:50 PM44.6 °F33.8 °F66 %29.80 in6.2 miWSW (240°)20.7 mphOvercast
11:50 PM44.6 °F35.6 °F71 %29.80 in6.2 miWSW (250°)20.7 mph33.4 mphMostly Cloudy
Hourly data recorded from ETUO, located miles away from Gutersloh, Germany







STORIES FROM OUR PARTNERS